[[{"header":{"parameterUnit":"m.s-1","parameterCategory":1,"la1":30.2991,"la2":30.254,"lo1":-89.0895,"lo2":-89.0444,"dy":0.0017,"dx":0.0017,"nx":28,"ny":28,"refTime":"2025-07-23T03:00:00:Z","depth":0,"parameterNumber":2,"parameterNumberName":"U-component_of_WINDS"},"data":[0,0,0,0,0,0,0,0,0,0,0,0,0,0,0,0,0,0,0,0,0,0,0,0,0,0,0,0,0,0,0,0,0,0,0,0,0,0,0,0,0,0,0,0,0,0,0,0,0,0,0,0,0,0,0,0,0,0,-3.7381,-3.7383,0,-3.7499,-3.7501,-3.7502,-3.7469,-3.7467,-3.7465,-3.7463,-3.7573,-3.7578,-3.7584,0,0,0,0,0,0,0,0,0,0,0,0,0,-3.712,-3.7125,-3.7381,-3.7383,-3.7384,-3.7499,-3.7501,-3.7502,-3.747,-3.7467,-3.7464,-3.7461,-3.7572,-3.7578,-3.7584,0,0,0,0,0,0,0,0,0,0,0,0,0,-3.7235,-3.7127,-3.7381,-3.7382,-3.7384,-3.7499,-3.7501,-3.7503,-3.747,-3.7467,-3.7463,-3.746,-3.757,-3.7577,-3.7585,-3.7703,0,0,-3.7608,-3.7612,0,0,0,0,0,0,0,0,-3.7229,-3.7245,-3.7381,-3.7382,-3.7384,-3.7466,-3.7449,-3.7569,-3.7471,-3.7437,-3.7462,-3.7458,-3.754,-3.755,-3.7579,-3.7708,-3.7713,-3.7609,-3.7614,-3.7617,-3.7619,0,0,0,0,0,0,0,-3.7221,-3.7239,-3.7428,-3.7383,-3.7385,-3.7374,-3.7387,-3.7472,-3.7506,-3.744,-3.7438,-3.7453,-3.754,-3.7572,-3.7582,-3.7715,-3.7609,-3.7616,-3.762,-3.7624,-3.7947,-3.7951,0,0,0,0,0,0,-3.7213,-3.7233,-3.7424,-3.7431,-3.7296,-3.7382,-3.7396,-3.7443,-3.7506,-3.7512,-3.7456,-3.7451,-3.7561,-3.7573,-3.7586,-3.7728,-3.7617,-3.7624,-3.7629,-3.7943,-3.7948,-3.7952,0,0,0,0,0,0,-3.7207,-3.723,-3.7419,-3.7332,-3.7355,-3.739,-3.7444,-3.7447,-3.7479,-3.7518,-3.7523,-3.7482,-3.7558,-3.7575,-3.7675,-3.7732,-3.7628,-3.7635,-3.7938,-3.7944,-3.795,-3.8015,0,0,0,0,0,0,-3.72,-3.7228,-3.7275,-3.7333,-3.736,-3.7509,-3.7447,-3.7452,-3.7494,-3.7489,-3.7544,-3.755,-3.7557,-3.7664,-3.7683,-3.774,-3.7641,-3.7933,-3.7941,-3.7948,-3.8007,-3.8022,-3.8034,0,0,0,0,0,-3.7191,-3.7286,-3.7278,-3.7301,-3.742,-3.7512,-3.7527,-3.7536,-3.7499,-3.7545,-3.757,-3.7548,-3.7723,-3.7674,-3.7695,-3.7756,-3.793,-3.7939,-3.7947,-3.8001,-3.8019,-3.8034,0,0,0,0,0,0,-3.723,-3.7294,-3.7285,-3.7403,-3.7453,-3.7507,-3.7565,-3.7555,-3.7613,-3.7606,-3.7611,-3.7624,-3.7727,-3.7751,-3.7696,-3.7874,-3.782,-3.7834,-3.7854,-3.7871,-3.7885,-3.7876,-3.7647,0,0,0,0,0,-3.7253,-3.7326,-3.7377,-3.7476,-3.7502,-3.753,-3.757,-3.7573,-3.7624,-3.7644,-3.7676,-3.7723,-3.7789,-3.7832,-3.7894,-3.8012,-3.8022,-3.8064,-3.8077,-3.8088,-3.8099,-3.8163,-3.8182,-3.7981,-3.7981,-3.7981,0,0,-3.73,-3.7344,-3.7389,-3.7485,-3.7524,-3.7597,-3.7547,-3.7626,-3.7679,-3.7654,-3.7752,-3.7778,-3.7831,-3.7941,-3.799,-3.7964,-3.8158,-3.81,-3.8108,-3.8113,-3.8174,-3.8193,-3.821,-3.7987,-3.7986,-3.7985,0,0,-3.7423,-3.7464,-3.7552,-3.7593,-3.7655,-3.7673,-3.7695,-3.7751,-3.7768,-3.7867,-3.785,-3.7913,-3.8026,-3.8065,-3.8099,-3.824,-3.8222,-3.826,-3.833,-3.8392,-3.8408,-3.8422,-3.8471,-3.8489,-3.8272,-3.8272,-3.8272,0,-3.7472,-3.7584,-3.7597,-3.7679,-3.7721,-3.7707,-3.7794,-3.7832,-3.791,-3.7938,-3.7909,-3.8052,-3.8086,-3.8205,-3.824,-3.8269,-3.8292,-3.8253,-3.8405,-3.8419,-3.8433,-3.848,-3.8498,-3.8276,-3.8275,-3.8275,-3.8275,0,-3.7642,-3.772,-3.7783,-3.7863,-3.7912,-3.7996,-3.8019,-3.8067,-3.8067,-3.8088,-3.8188,-3.823,-3.8302,-3.833,-3.8329,-3.8449,-3.8431,-3.8404,-3.8349,-3.8456,-3.85,-3.8518,-3.8282,-3.828,-3.8279,-3.8278,0,0,-3.7789,-3.7879,-3.7901,-3.7938,-3.8006,-3.8065,-3.8148,-3.8222,-3.8263,-3.8317,-3.8385,-3.8483,-3.8459,-3.8498,-3.8501,-3.8556,-3.8665,-3.8522,-3.8523,-3.8546,-3.88,-3.8819,-3.884,-3.8655,-3.8658,-3.8661,-3.8795,0,-3.7918,-3.8068,-3.8083,-3.8216,-3.8288,-3.8277,-3.8349,-3.8397,-3.842,-3.8481,-3.8505,-3.8574,-3.8537,-3.8561,-3.8615,-3.8641,-3.8716,-3.8631,-3.8716,-3.8718,-3.8701,-3.8863,-3.8883,-3.9007,-3.8812,-3.8815,-3.8817,0,-3.8086,-3.8151,-3.8292,-3.8353,-3.8383,-3.8448,-3.8517,-3.8578,-3.8632,-3.8644,-3.8691,-3.8687,-3.877,-3.8715,-3.8829,-3.8771,-3.8807,-3.8824,-3.8829,-3.8836,-3.8773,-3.8872,-3.9047,-3.9065,-3.8845,-3.8843,-3.8841,0,-3.8179,-3.8301,-3.8401,-3.8433,-3.8506,-3.8552,-3.8584,-3.8635,-3.8679,-3.8738,-3.8767,-3.8834,-3.887,-3.8921,-3.8935,-3.8894,-3.9049,-3.8994,-3.9059,-3.9059,-3.909,-3.9087,-3.9271,-3.9116,-3.9116,-3.9115,-3.9115,0,-3.832,-3.8406,-3.8444,-3.8506,-3.8603,-3.8619,-3.8713,-3.8741,-3.8788,-3.8853,-3.8847,-3.8907,-3.8923,-3.8986,-3.8997,-3.9089,-3.9106,-3.9116,-3.9118,-3.9116,-3.9115,-3.9138,-3.9129,-3.912,-3.9119,-3.9118,-3.9117,0,-3.8438,-3.8468,-3.8577,-3.8639,-3.8656,-3.8725,-3.8776,-3.8834,-3.8857,-3.894,-3.896,-3.8994,-3.9068,-3.9089,-3.9176,-3.9183,-3.9292,-3.9286,-3.9274,-3.9274,-3.9337,-3.933,-3.9541,-3.9569,-3.9396,-3.9398,-3.9399,0,-3.8525,-3.8593,-3.8663,-3.8709,-3.8744,-3.8816,-3.8862,-3.8881,-3.8928,-3.8997,-3.9046,-3.9121,-3.9181,-3.9299,-3.933,-3.9397,-3.9392,-3.9461,-3.9401,-3.9398,-3.9391,-3.9387,-3.9393,-3.9471,-3.9473,-3.9475,-3.9476,0,-3.8676,-3.8688,-3.8757,-3.8831,-3.8888,-3.8946,-3.9001,-3.9038,-3.9064,-3.9117,-3.9196,-3.9243,-3.9335,-3.9407,-3.9476,-3.9505,-3.9494,-3.9495,-3.9514,-3.9511,-3.9502,-3.9507,-3.9304,-3.9489,-3.9488,-3.9487,-3.9486,-3.9486,-3.8781,-3.884,-3.8901,-3.8977,-3.9022,-3.9075,-3.9134,-3.9166,-3.9233,-3.9311,-3.9318,-3.9402,-3.9455,-3.9546,-3.958,-3.9644,-3.9623,-3.965,-3.9656,-3.9662,-3.9667,-3.9494,-3.9657,-3.9656,-3.9656,-3.9656,-3.9655,0,-3.893,-3.897,-3.9041,-3.9121,-3.9181,-3.9171,-3.9233,-3.9283,-3.9358,-3.9411,-3.9472,-3.9561,-3.9633,-3.9671,-3.9741,-3.9785,-3.9782,-3.9803,-3.9799,-3.9806,-3.9682,-3.9659,-3.9805,-3.9805,-3.9805,-3.9804,-3.9804,-3.9804,-3.9015,-3.9116,-3.9136,-3.9258,-3.9296,-3.9381,-3.9418,-3.9466,-3.9508,-3.961,-3.9671,-3.9697,-3.9743,-3.9817,-3.9882,-3.9891,-3.9916,-3.994,-3.9946,-3.983,-3.9814,-3.98,-3.9778,-3.9946,-3.9946,-4.0064,-4.0065,-4.0066]},{"header":{"parameterUnit":"m.s-1","parameterCategory":1,"la1":30.2991,"la2":30.254,"lo1":-89.0895,"lo2":-89.0444,"dy":0.0017,"dx":0.0017,"nx":28,"ny":28,"refTime":"2025-07-23T03:00:00:Z","depth":0,"parameterNumber":3,"parameterNumberName":"V-component_of_WINDS"},"data":[0,0,0,0,0,0,0,0,0,0,0,0,0,0,0,0,0,0,0,0,0,0,0,0,0,0,0,0,0,0,0,0,0,0,0,0,0,0,0,0,0,0,0,0,0,0,0,0,0,0,0,0,0,0,0,0,0,0,-1.7976,-1.7975,0,-1.7885,-1.7884,-1.7883,-1.7831,-1.7831,-1.7831,-1.7831,-1.7735,-1.7733,-1.773,0,0,0,0,0,0,0,0,0,0,0,0,0,-1.8102,-1.81,-1.7976,-1.7975,-1.7974,-1.7885,-1.7884,-1.7883,-1.7831,-1.7831,-1.7831,-1.783,-1.7736,-1.7733,-1.773,0,0,0,0,0,0,0,0,0,0,0,0,0,-1.8033,-1.81,-1.7976,-1.7938,-1.7933,-1.7885,-1.7884,-1.7882,-1.7831,-1.7831,-1.7831,-1.783,-1.7737,-1.7733,-1.773,-1.7713,0,0,-1.7719,-1.7717,0,0,0,0,0,0,0,0,-1.8037,-1.8028,-1.7944,-1.794,-1.7935,-1.7869,-1.7893,-1.7825,-1.7831,-1.787,-1.783,-1.783,-1.778,-1.7773,-1.7756,-1.7709,-1.7704,-1.7719,-1.7717,-1.7715,-1.7714,0,0,0,0,0,0,0,-1.8042,-1.8032,-1.794,-1.7943,-1.7938,-1.7923,-1.7913,-1.788,-1.7827,-1.7866,-1.7862,-1.7852,-1.7777,-1.776,-1.7753,-1.7703,-1.7719,-1.7716,-1.7713,-1.7712,-1.7634,-1.7634,0,0,0,0,0,0,-1.8053,-1.8036,-1.7943,-1.7937,-1.7987,-1.7921,-1.791,-1.7891,-1.7828,-1.7818,-1.7853,-1.785,-1.7766,-1.7758,-1.775,-1.7724,-1.7715,-1.7712,-1.771,-1.7634,-1.7634,-1.7634,0,0,0,0,0,0,-1.8056,-1.8045,-1.7947,-1.7986,-1.7972,-1.792,-1.7898,-1.7889,-1.7871,-1.7817,-1.7807,-1.7845,-1.7765,-1.7755,-1.7722,-1.772,-1.771,-1.7707,-1.7634,-1.7634,-1.7634,-1.7674,0,0,0,0,0,0,-1.806,-1.8047,-1.8041,-1.7986,-1.797,-1.7922,-1.7898,-1.7887,-1.7865,-1.7861,-1.7807,-1.7798,-1.7764,-1.7728,-1.7719,-1.7715,-1.7704,-1.7634,-1.7634,-1.7634,-1.7672,-1.7675,-1.7678,0,0,0,0,0,-1.8065,-1.8056,-1.8041,-1.803,-1.7962,-1.7922,-1.7912,-1.7875,-1.7866,-1.7858,-1.7823,-1.78,-1.7722,-1.7725,-1.7714,-1.771,-1.7634,-1.7634,-1.7634,-1.7671,-1.7675,-1.7678,0,0,0,0,0,0,-1.8112,-1.8048,-1.8031,-1.8004,-1.7969,-1.7913,-1.7903,-1.788,-1.7846,-1.7843,-1.7797,-1.7785,-1.7757,-1.773,-1.7734,-1.7688,-1.7675,-1.7673,-1.7707,-1.771,-1.7713,-1.7719,-1.7701,0,0,0,0,0,-1.8119,-1.8093,-1.8038,-1.802,-1.8003,-1.7956,-1.7937,-1.7911,-1.7872,-1.7857,-1.7819,-1.7782,-1.7749,-1.7728,-1.7695,-1.7668,-1.7655,-1.766,-1.7662,-1.7665,-1.7663,-1.7645,-1.7646,-1.7635,-1.7635,-1.7635,0,0,-1.8134,-1.8096,-1.8082,-1.8028,-1.7997,-1.797,-1.7944,-1.7916,-1.7894,-1.7852,-1.7819,-1.779,-1.7745,-1.7715,-1.7699,-1.7691,-1.7663,-1.7665,-1.7667,-1.7664,-1.7645,-1.7647,-1.7648,-1.7635,-1.7635,-1.7635,0,0,-1.8146,-1.8115,-1.8095,-1.8065,-1.8019,-1.7988,-1.7983,-1.7931,-1.791,-1.7875,-1.7842,-1.7816,-1.776,-1.7729,-1.7706,-1.7704,-1.768,-1.7694,-1.7708,-1.7691,-1.7692,-1.7692,-1.769,-1.769,-1.7693,-1.7693,-1.7693,0,-1.817,-1.8128,-1.8088,-1.8062,-1.8038,-1.7999,-1.7977,-1.795,-1.7895,-1.7879,-1.7871,-1.7799,-1.7766,-1.7727,-1.7726,-1.771,-1.7701,-1.77,-1.7695,-1.7695,-1.7695,-1.7692,-1.7692,-1.7695,-1.7695,-1.7695,-1.7695,0,-1.8158,-1.8129,-1.8119,-1.8067,-1.8042,-1.8019,-1.7974,-1.7953,-1.7929,-1.7898,-1.7862,-1.7821,-1.7778,-1.7767,-1.7743,-1.7723,-1.772,-1.7704,-1.7689,-1.7699,-1.7695,-1.7694,-1.7698,-1.7697,-1.7697,-1.7696,0,0,-1.8198,-1.8124,-1.812,-1.8095,-1.8041,-1.8017,-1.7991,-1.7949,-1.7931,-1.7895,-1.787,-1.7823,-1.7808,-1.7781,-1.7753,-1.7738,-1.7737,-1.7724,-1.7722,-1.7727,-1.7711,-1.7723,-1.7722,-1.7721,-1.7721,-1.7721,-1.7714,0,-1.8201,-1.8153,-1.8115,-1.808,-1.8052,-1.8013,-1.799,-1.7953,-1.7924,-1.7894,-1.786,-1.7827,-1.781,-1.7794,-1.7777,-1.7741,-1.7733,-1.7741,-1.7697,-1.7696,-1.7708,-1.7721,-1.7733,-1.7729,-1.7713,-1.7713,-1.7713,0,-1.8198,-1.8163,-1.8125,-1.8072,-1.8059,-1.8039,-1.7996,-1.7969,-1.7926,-1.7905,-1.7875,-1.7846,-1.7814,-1.7803,-1.7758,-1.7764,-1.7744,-1.7723,-1.7722,-1.7715,-1.7704,-1.7714,-1.7727,-1.7726,-1.771,-1.7711,-1.7711,0,-1.8229,-1.8172,-1.8141,-1.8121,-1.8059,-1.8046,-1.8019,-1.7976,-1.7952,-1.7914,-1.7898,-1.7858,-1.7835,-1.7804,-1.7763,-1.7759,-1.7722,-1.7708,-1.7702,-1.7703,-1.7696,-1.7697,-1.7705,-1.7684,-1.7684,-1.7685,-1.7685,0,-1.8235,-1.8214,-1.8154,-1.8135,-1.8109,-1.8066,-1.804,-1.801,-1.7972,-1.7945,-1.7909,-1.7885,-1.7834,-1.7803,-1.7771,-1.7738,-1.7728,-1.7709,-1.7701,-1.7712,-1.7714,-1.7697,-1.7696,-1.7684,-1.7684,-1.7684,-1.7684,0,-1.8265,-1.8224,-1.8188,-1.8132,-1.8117,-1.81,-1.8051,-1.8031,-1.7999,-1.7965,-1.7955,-1.7904,-1.7865,-1.7822,-1.777,-1.7748,-1.7716,-1.7705,-1.7731,-1.7726,-1.7722,-1.7723,-1.772,-1.7716,-1.7699,-1.77,-1.77,0,-1.8271,-1.8254,-1.8195,-1.8175,-1.815,-1.8118,-1.8093,-1.805,-1.8026,-1.7974,-1.7959,-1.7918,-1.7883,-1.7823,-1.778,-1.7739,-1.7726,-1.7727,-1.7719,-1.773,-1.7724,-1.7725,-1.7722,-1.773,-1.773,-1.773,-1.7731,0,-1.8286,-1.8267,-1.8234,-1.8193,-1.8165,-1.8131,-1.8095,-1.808,-1.8029,-1.8003,-1.7964,-1.7936,-1.7882,-1.7841,-1.7794,-1.7765,-1.7739,-1.7734,-1.773,-1.774,-1.7756,-1.7746,-1.7736,-1.7734,-1.7733,-1.7733,-1.7733,-1.7733,-1.8303,-1.8285,-1.8241,-1.8204,-1.8173,-1.814,-1.8117,-1.8082,-1.8048,-1.8001,-1.7977,-1.7937,-1.7892,-1.7827,-1.7799,-1.7766,-1.7758,-1.7753,-1.7751,-1.775,-1.7753,-1.7762,-1.7758,-1.7757,-1.7757,-1.7757,-1.7757,0,-1.8315,-1.8285,-1.8252,-1.8203,-1.8173,-1.8152,-1.8111,-1.8087,-1.8053,-1.8014,-1.798,-1.7933,-1.7893,-1.7847,-1.7803,-1.7786,-1.7773,-1.7776,-1.7776,-1.7769,-1.7763,-1.777,-1.7787,-1.7787,-1.7787,-1.7787,-1.7787,-1.7787,-1.8318,-1.8285,-1.826,-1.8211,-1.818,-1.8141,-1.8119,-1.8088,-1.8056,-1.8006,-1.7973,-1.7943,-1.7901,-1.7853,-1.7815,-1.7802,-1.7787,-1.7794,-1.7778,-1.7773,-1.777,-1.7768,-1.7774,-1.7791,-1.7791,-1.7786,-1.7786,-1.7786]}]]